This is the latest recevied weather packets stored in our database for station/object NEWPRT. If no packets are shown the sender has not sent any weather packets the latest 10 day(s).
| Time | Temp. | Humidity | Pressure | Rain* | Wind** | Luminosity | Snow |
|---|---|---|---|---|---|---|---|
| 1778144082 | - | 75% | 1022.2 hPa | 0 mm | - | - | - |
| 1778143759 | - | 75% | 1022.2 hPa | 0 mm | - | - | - |
| 1778143436 | - | 74% | 1022.2 hPa | 0 mm | - | - | - |
| 1778143113 | - | 75% | 1022.2 hPa | 0 mm | - | - | - |
| 1778142790 | - | 75% | 1022.2 hPa | 0 mm | - | - | - |
| 1778142467 | - | 75% | 1022.3 hPa | 0 mm | - | - | - |
| 1778142144 | - | 76% | 1022.3 hPa | 0 mm | - | - | - |
| 1778141821 | - | 76% | 1022.3 hPa | 0 mm | - | - | - |
| 1778141498 | - | 77% | 1022.3 hPa | 0 mm | - | - | - |
| 1778141175 | - | 77% | 1022.4 hPa | 0 mm | - | - | - |
| 1778140852 | - | 78% | 1022.3 hPa | 0 mm | - | - | - |
| 1778140530 | - | 80% | 1022.2 hPa | 0 mm | - | - | - |
| 1778140206 | - | 77% | 1022.2 hPa | 0 mm | - | - | - |
| 1778139883 | - | 80% | 1022.4 hPa | 0 mm | - | - | - |
| 1778139562 | - | 78% | 1022.3 hPa | 0 mm | - | - | - |
| 1778139237 | - | 79% | 1022.3 hPa | 0 mm | - | - | - |
| 1778138914 | - | 78% | 1022.4 hPa | 0 mm | - | - | - |
| 1778138603 | - | 79% | 1022.5 hPa | 0 mm | - | - | - |
| 1778138268 | - | 79% | 1022.5 hPa | 0 mm | - | - | - |
| 1778137946 | - | 77% | 1022.3 hPa | 0 mm | - | - | - |
| 1778137622 | - | 77% | 1022.3 hPa | 0 mm | - | - | - |
| 1778137299 | - | 77% | 1022.3 hPa | 0 mm | - | - | - |
| 1778136976 | - | 78% | 1022.4 hPa | 0 mm | - | - | - |
| 1778136653 | - | 80% | 1022.4 hPa | 0 mm | - | - | - |
| 1778136331 | - | 79% | 1022.4 hPa | 0 mm | - | - | - |
* Rain latest hour (hover to see other rain measurements)
** Current wind speed in m/s (hover to see current wind gust speed)